Date,TemperatureHighF,TemperatureAvgF,TemperatureLowF,DewpointHighF,DewpointAvgF,DewpointLowF,HumidityHigh,HumidityAvg,HumidityLow,PressureMaxIn,PressureMinIn,WindSpeedMaxMPH,WindSpeedAvgMPH,GustSpeedMaxMPH,PrecipitationSumIn
2013-1-1,24,17,11,19,14,9,94,88,80,30.49,30.30,14,2,14,0.00
2013-1-2,35,25,11,29,21,7,90,82,71,30.45,30.27,16,3,16,0.00
2013-1-3,29,24,16,24,19,13,91,81,65,30.58,30.44,13,3,13,0.00
2013-1-4,35,19,11,22,13,7,89,77,55,30.47,30.28,10,3,10,0.00
2013-1-5,42,26,10,29,18,7,88,73,58,30.43,30.21,19,4,19,0.01
2013-1-6,40,26,15,26,19,12,88,75,57,30.49,30.20,17,3,17,0.00
2013-1-7,39,30,20,28,24,19,95,79,60,30.20,30.07,19,2,19,0.00
2013-1-8,41,26,13,33,23,10,95,86,69,30.36,29.99,10,1,10,0.00
2013-1-9,45,33,22,32,26,19,91,78,59,30.56,30.35,14,2,14,0.00
2013-1-10,38,35,30,35,32,26,98,89,67,30.44,29.75,13,3,13,0.09
2013-1-11,40,34,20,40,33,15,99,95,76,29.95,29.47,27,4,27,0.02
2013-1-12,20,15,8,15,7,4,82,71,58,30.37,29.95,27,7,27,0.00
2013-1-13,21,12,5,9,4,0,82,72,50,30.55,30.36,15,4,15,0.00
2013-1-14,26,15,5,14,8,1,84,74,56,30.66,30.52,12,2,12,0.00
2013-1-15,30,21,13,19,14,9,89,74,57,30.53,30.20,17,4,17,0.00
2013-1-16,53,37,20,32,26,12,86,67,38,30.42,30.12,21,4,21,0.00
2013-1-17,48,36,27,34,28,23,89,76,54,30.59,30.36,11,3,11,0.00
2013-1-18,51,39,32,35,30,26,79,70,51,30.36,30.02,16,4,16,0.00
2013-1-19,55,41,33,30,27,25,81,60,32,30.20,30.00,21,5,24,0.00
2013-1-20,22,20,19,13,11,9,77,70,61,30.59,30.55,9,2,9,0.00
2013-1-21,22,14,12,15,9,6,84,79,71,30.62,30.50,11,2,11,0.00
2013-1-22,26,19,13,16,10,5,78,70,60,30.54,30.38,12,3,12,0.00
2013-1-23,34,23,12,22,15,4,86,72,56,30.66,30.30,18,3,18,0.00
2013-1-24,21,13,5,11,4,0,84,68,50,30.66,30.32,14,4,15,0.00
2013-1-25,53,33,16,31,22,10,85,66,33,30.43,30.30,10,2,10,0.00
2013-1-26,54,40,26,37,27,22,85,64,37,30.32,30.02,20,4,20,0.00
2013-1-27,43,39,35,41,38,35,99,97,80,30.02,29.76,15,2,15,0.07
2013-1-28,37,34,30,37,34,30,100,100,99,29.92,29.72,17,1,17,0.02
2013-1-29,35,33,29,32,30,26,99,90,72,29.90,29.76,20,5,20,0.00
2013-1-30,29,22,19,28,16,12,95,75,65,30.09,29.88,29,6,29,0.00
2013-1-31,21,14,9,14,3,-3,82,64,47,30.60,30.09,28,5,28,0.00
2013-2-1,40,26,10,34,19,-1,86,75,57,30.57,30.19,25,4,25,0.00
2013-2-2,55,41,30,35,28,22,91,65,28,30.33,30.18,28,5,28,0.00
2013-2-3,48,37,24,32,28,22,88,69,50,30.36,29.92,24,4,24,0.00
2013-2-4,38,32,27,29,26,24,92,82,65,30.13,29.92,17,4,17,0.00
2013-2-5,53,40,28,32,27,24,93,64,34,30.18,29.99,18,3,18,0.00
2013-2-6,53,43,35,44,36,28,94,75,58,30.10,29.88,22,4,22,0.00
2013-2-7,49,38,25,37,30,23,95,73,49,30.35,30.01,21,4,21,0.00
2013-2-8,35,29,24,31,27,23,97,93,85,30.40,30.17,19,4,19,0.00
2013-2-9,53,40,31,41,34,28,95,82,54,30.17,29.62,26,7,26,0.04
2013-2-10,40,38,32,40,36,29,98,95,89,29.63,29.28,24,5,24,0.04
2013-2-17,62,43,26,32,28,23,92,61,25,30.10,29.63,17,2,21,0.00
2013-2-18,46,35,24,32,23,16,73,62,47,30.23,29.66,16,8,30,0.00
2013-2-19,29,21,15,17,7,-2,82,57,27,30.50,30.25,11,5,16,0.00
2013-2-20,24,17,10,19,9,2,88,71,50,30.50,30.30,9,5,16,0.00
2013-2-21,20,18,17,17,15,12,93,87,73,30.34,30.05,12,6,19,0.00
2013-2-22,24,16,9,16,13,5,92,85,73,30.25,30.09,11,4,14,0.00
2013-2-23,27,14,10,23,11,7,90,89,86,30.18,30.00,5,2,9,0.09
2013-2-24,30,28,17,27,26,15,95,91,87,30.25,30.05,14,4,14,0.00
2013-2-25,28,27,26,27,26,24,95,95,94,30.25,30.20,7,2,7,0.00
2013-3-2,32,31,30,29,29,28,92,91,90,30.21,30.17,8,3,8,0.00
2013-3-3,45,36,28,38,33,27,96,86,73,30.17,29.73,15,3,15,0.00
2013-3-4,47,37,27,35,28,12,95,72,44,30.24,29.71,28,6,28,0.00
2013-3-5,35,27,22,18,15,12,79,60,42,30.56,30.24,26,7,28,0.00
2013-3-6,39,28,17,24,20,14,89,73,52,30.57,30.28,17,3,17,0.00
2013-3-7,53,37,24,33,27,21,89,69,43,30.29,30.15,17,4,17,0.00
2013-3-8,57,43,29,48,36,26,92,76,57,30.22,29.88,19,4,19,0.00
2013-3-9,64,44,30,57,42,28,100,92,61,29.88,29.54,26,8,26,0.38
2013-3-10,31,24,19,29,20,14,94,84,75,30.18,29.88,31,11,31,0.00
2013-3-11,53,30,14,33,20,10,87,68,39,30.21,30.00,21,5,21,0.00
2013-3-12,41,34,25,27,19,6,82,57,24,30.48,30.20,30,6,30,0.00
2013-3-13,40,30,20,31,22,14,80,71,66,30.51,30.27,13,2,13,0.00
2013-3-14,72,52,34,45,35,30,90,59,23,30.27,30.11,18,3,18,0.00
2013-3-15,76,57,44,46,40,36,76,55,26,30.11,29.73,15,4,15,0.00
2013-3-16,44,33,28,37,24,19,85,70,57,30.26,29.91,22,5,22,0.00
2013-3-17,40,31,26,34,27,22,96,85,76,30.24,29.81,15,4,15,0.05
2013-3-18,42,36,29,33,21,9,96,59,26,30.20,29.81,20,6,26,0.07
2013-3-19,50,39,30,31,20,10,87,50,27,30.48,30.16,24,4,24,0.00
2013-3-20,44,30,16,20,15,10,86,59,30,30.54,30.17,12,2,13,0.00
2013-3-21,37,31,26,27,20,14,75,64,56,30.18,29.96,20,5,20,0.00
2013-3-22,34,29,25,30,26,21,93,89,73,30.15,30.06,13,2,13,0.03
2013-3-23,31,29,24,29,26,21,94,89,81,30.29,30.13,19,5,19,0.00
2013-3-24,31,24,18,21,16,13,88,71,49,30.31,30.25,32,8,32,0.00
2013-3-25,28,25,20,18,15,14,85,68,58,30.54,30.39,26,6,26,0.00
2013-3-26,46,30,13,24,18,10,89,64,34,30.54,30.32,16,3,16,0.01
2013-3-27,55,40,29,32,27,23,80,61,39,30.34,30.23,13,2,14,0.00
2013-3-28,62,47,31,35,30,26,88,57,26,30.32,30.20,14,2,14,0.00
2013-3-29,70,53,35,51,38,30,92,59,32,30.26,30.03,18,4,18,0.18
2013-3-30,64,54,49,52,46,34,99,77,36,30.11,29.97,19,4,19,0.12
2013-3-31,63,50,39,45,35,28,88,60,30,30.12,29.96,23,4,23,0.00
2013-4-6,62,62,62,32,32,32,32,32,32,29.83,29.83,1,1,1,0.00
2013-4-7,68,58,49,50,43,37,92,61,36,29.82,29.67,18,3,19,0.48
2013-4-8,70,58,46,60,54,44,98,87,69,29.71,29.61,20,3,20,0.04
2013-4-9,61,32,23,59,31,21,98,94,87,30.19,29.53,32,9,37,0.68
2013-4-10,30,27,24,27,25,22,95,92,87,30.22,30.06,22,6,23,0.00
2013-4-11,33,29,24,28,25,22,95,87,75,30.06,29.88,20,6,20,0.00
2013-4-12,37,36,34,34,33,32,92,88,86,30.15,30.14,0,0,0,0.14
2013-4-13,54,37,30,42,33,29,97,88,62,30.17,29.89,14,2,14,0.00
2013-4-14,58,52,41,46,33,25,89,51,32,29.79,29.41,31,10,31,0.01
2013-4-15,45,38,32,30,25,19,74,59,46,30.19,29.78,18,5,18,0.00
2013-4-16,46,41,34,33,29,26,81,64,49,30.34,30.19,18,5,18,0.00
2013-4-17,44,36,32,36,33,29,97,90,65,30.28,29.96,33,7,33,0.46
2013-4-18,35,30,27,29,26,24,97,85,68,30.16,29.97,32,9,32,0.00
2013-4-19,48,36,26,29,25,22,86,66,41,30.17,30.12,20,6,20,0.00
2013-4-20,49,44,35,33,30,25,72,58,47,30.28,30.15,20,6,20,0.00
2013-4-21,69,51,37,48,39,31,91,65,34,30.21,30.02,21,4,21,0.13
2013-4-22,44,37,30,43,35,26,98,93,85,30.43,30.03,26,7,26,0.77
2013-4-23,37,31,27,27,22,16,88,69,44,30.43,30.34,21,6,21,0.00
2013-4-24,42,31,26,30,26,22,90,82,64,30.38,30.34,5,0,5,0.00
2013-4-25,72,52,32,37,32,28,86,52,21,30.35,30.03,26,6,26,0.00
2013-4-26,74,60,47,52,40,34,87,53,25,30.21,30.03,14,4,14,0.00
2013-4-27,76,58,41,54,45,40,98,68,30,30.22,29.96,13,3,13,0.00
2013-4-28,86,67,50,53,48,41,89,56,23,29.96,29.66,21,5,21,0.00
2013-4-29,84,68,53,57,46,41,72,48,24,29.83,29.46,19,4,19,0.00
2013-4-30,71,64,54,58,44,28,69,50,26,29.96,29.46,24,6,24,0.03
2013-5-1,53,36,32,41,34,31,98,93,51,30.62,29.94,26,7,26,0.53
2013-5-2,53,43,36,31,29,23,84,60,33,30.76,30.54,24,6,24,0.22
2013-5-3,54,43,32,30,24,14,76,51,20,30.54,30.18,20,4,20,0.00
2013-5-4,46,42,37,38,31,25,89,66,52,30.29,30.16,25,6,25,0.00
2013-5-5,52,43,41,45,39,37,91,87,78,30.30,30.22,14,4,14,0.00
2013-5-6,71,55,36,47,38,32,98,61,24,30.26,30.10,8,1,8,0.00
2013-5-7,66,58,52,57,51,36,90,78,45,30.11,29.96,14,2,14,0.07
2013-5-8,68,59,53,59,56,52,98,87,70,30.00,29.93,11,2,11,0.13
2013-5-9,60,56,52,54,53,50,98,91,79,30.12,29.92,15,3,15,0.03
2013-5-10,73,58,47,54,46,37,97,72,28,30.20,30.07,17,2,17,0.01
2013-5-11,63,56,48,45,32,21,73,43,22,30.37,30.13,25,5,25,0.00
2013-5-12,70,57,44,44,33,24,65,41,30,30.34,30.11,15,3,15,0.00
2013-5-13,88,69,49,57,49,43,83,54,23,30.13,29.86,22,5,22,0.00
2013-5-14,101,80,61,57,50,38,77,42,12,29.86,29.62,22,4,22,0.00
2013-5-15,84,73,61,51,44,36,53,36,21,29.87,29.77,20,4,21,0.00
2013-5-16,71,67,63,50,48,46,63,50,41,29.84,29.83,8,1,9,0.00
2013-5-18,78,68,63,69,59,55,90,73,56,29.73,29.56,23,6,23,0.19
2013-5-19,74,64,57,65,59,53,95,83,56,29.72,29.48,25,2,25,0.82
2013-5-20,71,62,56,57,53,48,95,74,46,29.73,29.55,28,5,28,0.00
2013-5-21,61,55,50,52,47,43,86,75,61,29.85,29.72,27,6,27,0.00
2013-5-22,62,54,47,51,47,44,89,78,64,30.11,29.84,19,4,19,0.00
2013-5-23,70,58,50,53,49,47,90,74,49,30.26,30.11,15,3,15,0.00
2013-5-24,76,64,54,63,55,49,87,75,53,30.25,29.99,29,6,29,0.00
2013-5-25,85,70,58,69,63,57,99,80,53,30.17,29.84,22,5,22,2.56
2013-5-26,84,74,65,70,67,62,94,79,62,29.88,29.70,22,5,22,0.00
2013-5-27,79,69,60,68,62,58,95,80,55,29.81,29.55,25,4,25,0.13
2013-5-28,79,69,58,65,61,56,95,77,59,29.73,29.60,16,3,16,0.00
2013-5-29,75,66,58,69,64,54,99,91,70,29.66,29.41,22,4,22,1.25
2013-5-30,80,67,57,60,55,48,99,71,36,29.65,29.47,18,3,18,0.01
2013-5-31,78,66,57,52,47,41,75,53,29,29.76,29.65,30,6,30,0.00
2013-6-1,62,57,53,51,48,46,87,73,63,30.15,29.74,26,6,26,0.01
2013-6-2,72,59,46,49,44,39,95,63,31,30.22,30.02,11,2,11,0.00
2013-6-3,78,65,52,58,51,43,86,63,41,30.03,29.75,28,6,28,0.00
2013-6-4,75,68,61,64,60,56,93,74,61,30.02,29.78,16,2,16,0.07
2013-6-5,65,59,53,58,51,46,83,76,69,30.12,30.01,17,3,17,0.07
2013-6-14,100,81,65,72,63,41,91,59,18,29.95,29.67,27,5,27,0.01
2013-6-15,85,75,65,68,64,60,91,70,48,29.94,29.76,19,2,19,0.01
2013-6-16,73,68,65,66,65,63,93,88,78,29.98,29.92,5,1,5,0.00